Voltar ao catálogo

STARLINK-32002

AtivoComunicaçõesVLEO
NORAD 60200·PAYLOAD·🇺🇸 United States

Lançado Jul 3, 2024 de Cape Canaveral Space Force Station

Loading…

Próximas Passagens (próximas 24 horas)

TLE

AtualizadoSource: CelesTrak SupGP

Época: Sep 14, 2026, 15:27 UTC

1 60200C 24124T   26257.64423611  .00062781  00000+0  20194-2 0  2578
2 60200  53.1567 163.3883 0001148  92.0488 341.9789 15.31662118    10

Acompanhe STARLINK-32002 em tempo real com AllMySat

Download on the App Store